Location: Newark
(40.3500°N, 15.2333°E)
Time: 22:51:29
(UTC+00:00)

Transit 2A Rocket - All Passes

Search period start: 20 January 2020 00:00
Search period end: 30 January 2020 00:00
Orbit: 593 x 910 km, 66.7° (Epoch: 20 January)

Date Brightness Start Highest point End Pass type
(mag) Time Alt. Az. Time Alt. Az. Time Alt. Az.
20 Jan - 04:17:48 10° SSE 04:20:56 20° ESE 04:24:03 10° ENE visible
20 Jan - 05:59:10 10° WSW 06:03:10 37° NW 06:07:12 10° NNE daylight
20 Jan - 12:59:57 10° N 13:03:24 19° NE 13:07:01 10° E daylight
20 Jan - 14:41:27 10° NW 14:46:16 62° WSW 14:51:33 10° SSE daylight
21 Jan - 05:16:15 10° SW 05:20:34 70° WNW 05:24:52 10° NNE visible
21 Jan - 12:18:38 10° NNE 12:20:30 12° NE 12:22:23 10° ENE daylight
21 Jan - 13:58:53 10° NNW 14:03:45 75° ENE 14:09:06 10° SE daylight
21 Jan - 15:43:27 10° WNW 15:45:50 13° WSW 15:48:18 10° SW daylight
22 Jan - 04:33:49 10° SSW 04:38:04 59° ESE 04:42:19 10° NE visible
22 Jan - 06:18:25 10° W 06:21:00 15° NW 06:23:35 10° N daylight
22 Jan - 13:16:32 10° NNW 13:21:10 43° NE 13:26:11 10° SE daylight
22 Jan - 14:59:32 10° WNW 15:03:31 24° WSW 15:07:47 10° SSW daylight
23 Jan - 03:51:54 10° S 03:55:40 30° ESE 03:59:26 10° NE visible
23 Jan - 05:34:33 10° WSW 05:38:10 26° NW 05:41:49 10° N visible
23 Jan - 12:34:23 10° N 12:38:28 26° NE 12:42:49 10° ESE daylight
23 Jan - 14:16:28 10° NW 14:21:08 43° WSW 14:26:12 10° S daylight
24 Jan - 03:10:48 10° SE 03:13:23 16° ESE 03:15:57 10° ENE visible
24 Jan - 04:51:19 10° SW 04:55:29 45° NW 04:59:40 10° NNE visible
24 Jan - 11:52:34 10° N 11:55:39 16° NE 11:58:52 10° E daylight
24 Jan - 13:33:44 10° NNW 13:38:40 76° WSW 13:44:03 10° SSE daylight
25 Jan - 04:08:35 10° SSW 04:12:55 88° NW 04:17:15 10° NNE visible
25 Jan - 05:54:53 10° WNW 05:56:09 11° NW 05:57:24 10° NNW daylight
25 Jan - 11:12:03 10° NNE 11:12:42 10° NE 11:13:21 10° NE daylight
25 Jan - 12:51:15 10° NNW 12:56:07 62° ENE 13:01:26 10° SE daylight
25 Jan - 14:35:07 10° WNW 14:38:18 17° WSW 14:41:38 10° SW daylight
26 Jan - 03:26:18 10° S 03:30:27 46° ESE 03:34:35 10° NE visible
26 Jan - 05:10:12 10° W 05:13:13 18° NW 05:16:17 10° N visible
26 Jan - 12:08:58 10° NNW 12:13:29 36° NE 12:18:22 10° ESE daylight
26 Jan - 13:51:37 10° NW 13:55:58 30° WSW 14:00:36 10° S daylight
27 Jan - 02:44:37 10° SSE 02:48:06 24° ESE 02:51:33 10° NE visible
27 Jan - 04:26:37 10° WSW 04:30:26 31° NW 04:34:20 10° N visible
27 Jan - 11:26:55 10° N 11:30:45 22° NE 11:34:50 10° E daylight
27 Jan - 13:08:42 10° NW 13:13:32 52° WSW 13:18:48 10° S daylight
28 Jan - 02:04:05 10° SE 02:05:49 12° ESE 02:07:34 10° E visible
28 Jan - 03:43:33 10° SW 03:47:48 57° WNW 03:52:05 10° NNE visible
28 Jan - 10:45:16 10° NNE 10:47:53 14° NE 10:50:37 10° ENE daylight
28 Jan - 12:26:04 10° NNW 12:31:02 89° ENE 12:36:29 10° SSE daylight
28 Jan - 14:11:33 10° W 14:13:01 11° WSW 14:14:31 10° WSW daylight
29 Jan - 03:00:58 10° SSW 03:05:16 73° ESE 03:09:35 10° NNE visible
29 Jan - 04:46:14 10° WNW 04:48:20 13° NW 04:50:28 10° NNW visible
29 Jan - 11:43:39 10° NNW 11:48:28 51° ENE 11:53:43 10° SE daylight
29 Jan - 13:27:00 10° WNW 13:30:45 21° WSW 13:34:42 10° SSW daylight
